Weather Roundup
Issued by NWS Chicago, IL

Home | Current Version | Previous Version | Graphics & Text | Print | Product List | Glossary On
Versions: 1 2 3 4 5 6 7 8 9 10 11 12 13 14 15 16 17 18 19 20 21 22 23 24 25 26 27 28 29 30 31 32 33 34 35 36 37 38 39 40 41 42 43 44 45 46 47 48 49 50
000
NZUS59 KLOT 011458
HRRLOT

CHICAGO AREA WEATHER ROUNDUP
NATIONAL WEATHER SERVICE CHICAGO/ROMEOVILLE IL
900 AM CST SUN FEB 01 2015

NOTE: "FAIR" INDICATES FEW OR NO CLOUDS BELOW 12,000 FEET WITH NO
SIGNIFICANT WEATHER AND/OR OBSTRUCTIONS TO VISIBILITY.

* THESE STATIONS ARE NOT UNDER NWS QUALITY CONTROL. THEY ALSO MAY NOT
  REPORT WEATHER SUCH AS PRECIPITATION OR FOG.

ILZ005-006-012>014-019>023-011600-
NORTHEAST ILLINOIS

CITY           SKY/WX    TMP DP  RH WIND       PRES   REMARKS
OHARE          SNOW      29  27  92 NE17      29.92F VSB 1/2 WCI  17
MIDWAY         NOT AVBL
AURORA         SNOW      31  28  89 NE21      29.89F VSB 1/4 WCI  18
WAUKEGAN       NOT AVBL
DUPAGE AIRPORT SNOW      30  28  92 NE17      29.90F VSB 1/4 WCI  18
WHEELING       SNOW      29  27  92 NE17G23   29.96F VSB 1/4 WCI  17
NORTHERLY IS     N/A     31  30  96 E20         N/A  WCI  19
$$

WIZ051-052-058>065-066-070>072-011600-
SOUTHEAST WISCONSIN

CITY           SKY/WX    TMP DP  RH WIND       PRES   REMARKS
MILWAUKEE      SNOW      23  19  85 NE25G33   30.05F VSB 1/4 WCI   7
WAUKESHA       LGT SNOW  21  19  93 NE12G23   30.04F VSB 1   WCI   9
$$

INZ001>003-010>013-019-020-011600-
NORTHWEST INDIANA

CITY           SKY/WX    TMP DP  RH WIND       PRES   REMARKS
GARY*          LGT SNOW  34  32  93 CALM      29.91F VSB 1
MICHIGAN CITY* NOT AVBL
RENSSELAER*    NOT AVBL
$$

LMZ740>746-011600-
SOUTHERN LAKE MICHIGAN

STATION/POSITION TIME  SKY/WX   TEMP WIND        PRES    VSBY
                                AIR  DIR/SP/G
                 (UTC)          (F)  (DEG/KT/KT) (MB)    (MI)
HARRISON CRIB    1400            31   70/ 23/ 27   N/A
BURNHAM HARBOR   1400            31   70/ 18/ 19   N/A
CALUMET HARBOR   1400            31   60/ 14/ 18   N/A
BURNS HARBOR     NOT AVBL
MICHIGAN CITY    1400            30   60/ 11/ 14   N/A
$$

ABBREVIATIONS USED IN REMARKS
   TC - TEMPERATURE IN CELSIUS
  WCI - WIND CHILL INDEX
   HX - HEAT INDEX
  VSB - VISIBILITY
$$


USA.gov is the U.S. government's official web portal to all federal, state and local government web resources and services.